Location: Barcelona
(41.3829°N, 2.1774°E)
Time: 23:24:51
(UTC+00:00)

ISS - Pass Details

Date: 26 April 2024
Orbit: 410 x 414 km, 51.6° (Epoch: 19 May)

Event Time Altitude Azimuth Distance (km) Brightness Sun altitude
Exits shadow 03:25:05 27° 284° (WNW) 825 -2.6 -15.8°
Maximum altitude 03:26:19 38° 332° (NNW) 638 -2.8 -15.6°
Drops below altitude 10° 03:29:29 10° 43° (NE) 1,489 0.3 -15.1°
Sets 03:31:38 0° 51° (NE) 2,341 2.0 -14.8°
